Change the Weather History Date:

Monday, January 21, 2013

  Actual Average Record
Temperature  
Mean Temperature 52 °F -  
Max Temperature 55 °F 55 °F 62 °F (1997)
Min Temperature 50 °F 40 °F 33 °F (2002)
Degree Days  
Heating Degree Days 12    
Growing Degree Days 2 (Base 50)    
Moisture  
Dew Point 49 °F    
Average Humidity 87    
Maximum Humidity 100    
Minimum Humidity 72    
Precipitation  
Precipitation 0.00 in 0.13 in - ()
Sea Level Pressure  
Sea Level Pressure 29.47 in    
Wind  
Wind Speed 6 mph ()    
Max Wind Speed 17 mph    
Max Gust Speed 21 mph    
Visibility 5.0 miles    
Events Rain , Thunderstorm    
Averages and records for this station are not official NWS values.
T = Trace of Precipitation, MM = Missing Value Source: Averaged Metar Reports

Daily Weather History Graph

Daily Weather History Graph

Search for Another Location

Airport or City:

Trip Planner

Search our weather history database for the weather conditions in past years. The results will help you decide how hot, cold, wet, or windy it might be!

Date:

Astronomy

Jan. 21, 2013 Rise Set
Actual Time 7:22 AM CET 5:06 PM CET
Civil Twilight 6:52 AM CET 5:36 PM CET
Nautical Twilight 6:18 AM CET 6:09 PM CET
Astronomical Twilight 5:46 AM CET 6:42 PM CET
Moon 12:34 PM CET (1/21) 2:34 AM CET (1/21)
Length of Visible Light 10h 44m
Length of Day
9h 44m
Waxing Gibbous, 73% of the Moon is Illuminated
Jan 21
Waxing Gibbous
Jan 27
Full
Feb 3
Last Quarter
Feb 10
New
Feb 17
First Quarter

Hourly Weather History & Observations

Time (CET) Temp. Dew Point Humidity Pressure Visibility Wind Dir Wind Speed Gust Speed Precip Events Conditions
12:20 AM 55.4 °F 53.6 °F 94% 29.47 in 4.3 mi West 6.9 mph - N/A Rain Rain
12:50 AM 55.4 °F 51.8 °F 88% 29.47 in 5.0 mi NW 3.5 mph - N/A Rain Light Rain
1:20 AM 53.6 °F 51.8 °F 94% 29.44 in 5.0 mi NNW 3.5 mph - N/A Rain Light Rain
1:50 AM 53.6 °F 51.8 °F 94% 29.44 in 6.2 mi NW 3.5 mph - N/A   Mostly Cloudy
2:20 AM 53.6 °F 51.8 °F 94% 29.44 in 6.2 mi NNE 2.3 mph - N/A   Mostly Cloudy
3:20 AM 53.6 °F 51.8 °F 94% 29.42 in 6.2 mi North 4.6 mph - N/A Rain Light Rain
3:50 AM 53.6 °F 51.8 °F 94% 29.42 in 4.3 mi NE 3.5 mph - N/A   Mostly Cloudy
4:20 AM 51.8 °F 51.8 °F 100% 29.39 in 3.7 mi Variable 2.3 mph - N/A Rain , Thunderstorm Light Rain
4:50 AM 53.6 °F 51.8 °F 94% 29.39 in 4.3 mi Variable 2.3 mph - N/A Rain , Thunderstorm Light Thunderstorms and Rain
5:20 AM 53.6 °F 51.8 °F 94% 29.36 in 3.1 mi WNW 3.5 mph - N/A Rain , Thunderstorm Thunderstorms and Rain
5:50 AM 51.8 °F 51.8 °F 100% 29.36 in 1.9 mi Variable 6.9 mph 20.7 mph N/A Rain , Thunderstorm Heavy Thunderstorms and Rain
6:50 AM 51.8 °F 50.0 °F 94% 29.42 in 3.7 mi SSE 6.9 mph - N/A Rain , Thunderstorm Thunderstorms and Rain
7:20 AM 51.8 °F 50.0 °F 94% 29.42 in 3.7 mi SSW 3.5 mph - N/A Rain , Thunderstorm Light Thunderstorms and Rain
7:50 AM 51.8 °F 50.0 °F 94% 29.42 in 3.7 mi SSE 3.5 mph - N/A Rain Light Rain
8:20 AM 51.8 °F 50.0 °F 94% 29.42 in 6.2 mi East 4.6 mph - N/A Rain Light Rain
8:50 AM 51.8 °F 50.0 °F 94% 29.42 in 6.2 mi Variable 2.3 mph - N/A   Light Drizzle
9:20 AM 51.8 °F 51.8 °F 100% 29.42 in 3.7 mi SSE 3.5 mph - N/A   Drizzle
9:50 AM 53.6 °F 51.8 °F 94% 29.42 in 3.7 mi SSW 3.5 mph - N/A   Drizzle
10:20 AM 53.6 °F 51.8 °F 94% 29.44 in 3.7 mi WSW 5.8 mph - N/A Rain Light Rain
10:50 AM 53.6 °F 50.0 °F 88% 29.44 in 3.7 mi West 4.6 mph - N/A Rain Light Rain
11:20 AM 53.6 °F 50.0 °F 88% 29.44 in 3.7 mi Variable 5.8 mph - N/A Rain Light Rain
11:50 AM 53.6 °F 50.0 °F 88% 29.44 in 6.2 mi West 9.2 mph - N/A   Mostly Cloudy
12:20 PM 55.4 °F 50.0 °F 82% 29.42 in 6.2 mi WSW 8.1 mph - N/A   Scattered Clouds
12:50 PM 55.4 °F 48.2 °F 77% 29.42 in 6.2 mi West 16.1 mph - N/A   Mostly Cloudy
1:20 PM 55.4 °F 46.4 °F 72% 29.44 in 6.2 mi West 16.1 mph - N/A   Mostly Cloudy
1:50 PM 55.4 °F 46.4 °F 72% 29.44 in 6.2 mi West 17.3 mph - N/A   Mostly Cloudy
2:20 PM 55.4 °F 46.4 °F 72% 29.44 in 6.2 mi West 16.1 mph - N/A   Mostly Cloudy
2:50 PM 55.4 °F 46.4 °F 72% 29.44 in 6.2 mi West 15.0 mph - N/A   Scattered Clouds
3:20 PM 51.8 °F 44.6 °F 76% 29.47 in 6.2 mi WSW 12.7 mph - N/A Rain Light Rain
3:50 PM 51.8 °F 46.4 °F 82% 29.47 in 6.2 mi West 13.8 mph - N/A Rain Light Rain
4:20 PM 51.8 °F 44.6 °F 76% 29.50 in 6.2 mi WSW 9.2 mph - N/A   Mostly Cloudy
4:50 PM 51.8 °F 44.6 °F 76% 29.50 in 6.2 mi West 9.2 mph - N/A   Mostly Cloudy
5:20 PM 51.8 °F 44.6 °F 76% 29.50 in 6.2 mi West 9.2 mph - N/A   Mostly Cloudy
5:50 PM 50.0 °F 44.6 °F 82% 29.50 in 6.2 mi WSW 8.1 mph - N/A   Mostly Cloudy
6:20 PM 51.8 °F 44.6 °F 76% 29.53 in 6.2 mi SW 4.6 mph - N/A   Mostly Cloudy
6:50 PM 51.8 °F 44.6 °F 76% 29.53 in 6.2 mi SSW 5.8 mph - N/A   Mostly Cloudy
7:20 PM 51.8 °F 46.4 °F 82% 29.53 in 3.1 mi WSW 13.8 mph - N/A Rain Rain
7:50 PM 51.8 °F 46.4 °F 82% 29.53 in 6.2 mi Variable 3.5 mph - N/A Rain Light Rain
8:20 PM 51.8 °F 48.2 °F 88% 29.56 in 6.2 mi Variable 1.2 mph - N/A Rain Light Rain
8:50 PM 50.0 °F 46.4 °F 87% 29.56 in 6.2 mi North 5.8 mph - N/A Rain Light Rain
9:20 PM 51.8 °F 46.4 °F 82% 29.56 in 5.0 mi WNW 3.5 mph - N/A Rain Light Rain
9:50 PM 50.0 °F 48.2 °F 94% 29.56 in 3.1 mi Variable 3.5 mph - N/A Rain Rain
10:20 PM 50.0 °F 46.4 °F 87% 29.56 in 3.7 mi South 4.6 mph - N/A Rain Light Rain
10:50 PM 50.0 °F 48.2 °F 94% 29.56 in 3.7 mi South 2.3 mph - N/A Rain Light Rain
11:20 PM 50.0 °F 48.2 °F 94% 29.56 in 3.1 mi WSW 5.8 mph - N/A Rain Rain
11:50 PM 50.0 °F 48.2 °F 94% 29.59 in 3.1 mi SSW 5.8 mph - N/A Rain Rain